This demonstration page uses our WeatherBlox Daily Observations layout. Learn more.

Left ArrowRight Arrow

Hourly Observations for May 31, 2018

Temp ( °F °C ) Dew Point ( °F °C ) Humidity (%) Winds ( mph kmh ) Pressure ( in mb ) Visibility ( mi km ) Precip ( " mm )
12:53 am 00:53 Mostly Clear 74 23.3 73 22.8 97 97 Calm 29.76 1008 10 16 0.00 0.00
1:44 am 01:44 Mostly Cloudy 73 22.8 72 22.2 96 96 SSW 3 6 29.80 1009 10 16 0.00 0.00
1:53 am 01:53 Partly Cloudy 73 22.8 72 22.2 96 96 SSW 3 6 29.78 1008 10 16 0.00 0.00
2:53 am 02:53 Partly Cloudy 73 22.8 72 22.2 96 96 Calm 29.77 1008 10 16 0.00 0.03
3:15 am 03:15 Cloudy 73 22.8 72 22.2 96 96 S 3 6 29.80 1009 10 16 0.00 0.00
3:53 am 03:53 Partly Cloudy 73 22.8 73 22.8 100 100 Calm 29.78 1008 9 14 0.00 0.00
4:53 am 04:53 Mostly Cloudy 73 22.8 72 22.2 96 96 Calm 29.78 1008 8 13 0.00 0.00
5:53 am 05:53 Clear with Mist and Fog 72 22.2 71 21.7 97 97 Calm 29.79 1009 6 10 0.00 0.00
6:18 am 06:18 Mostly Cloudy with Mist and Fog 71 21.7 71 21.7 100 100 Calm 29.80 1009 6 10 0.00 0.00
6:27 am 06:27 Partly Cloudy with Mist and Fog 71 21.7 71 21.7 100 100 Calm 29.80 1009 5 8 0.00 0.00
6:53 am 06:53 Sunny with Mist and Fog 72 22.2 71 21.7 97 97 SW 3 6 29.80 1009 6 10 0.00 0.00
7:53 am 07:53 Mostly Cloudy 74 23.3 72 22.2 94 94 Calm 29.82 1010 9 14 0.00 0.00
8:53 am 08:53 Sunny 76 24.4 72 22.2 88 88 Calm 29.83 1010 10 16 0.00 0.00
9:53 am 09:53 Mostly Sunny 79 26.1 73 22.8 82 82 SSW 6 9 29.84 1011 10 16 0.00 0.00
10:53 am 10:53 Partly Cloudy 80 26.7 73 22.8 79 79 VRB 5 7 29.83 1010 10 16 0.00 0.00
11:53 am 11:53 Mostly Cloudy 81 27.2 73 22.8 77 77 SSW 8 13 29.83 1010 10 16 0.00 0.00
12:28 pm 12:28 Mostly Cloudy 82 27.8 74 23.3 77 77 WSW 8 13 29.83 1010 10 16 0.00 0.00
12:53 pm 12:53 Cloudy 83 28.3 74 23.3 74 74 WSW 12 19 29.83 1010 10 16 0.00 0.00
1:38 pm 13:38 Partly Cloudy 83 28.3 74 23.3 74 74 WSW 15 24 29.80 1009 9 14 0.00 0.00
1:53 pm 13:53 Sunny 84 28.9 74 23.3 72 72 WSW 10 17 29.82 1010 8 13 0.00 0.00
2:53 pm 14:53 Sunny 86 30 75 23.9 70 70 VRB 7 11 29.81 1010 10 16 0.00 0.00
3:53 pm 15:53 Partly Cloudy 85 29.4 74 23.3 70 70 SW 10 17 29.80 1009 10 16 0.00 0.00
4:23 pm 16:23 Partly Cloudy with Thunderstorms 72 22.2 68 20 87 87 WSW 15 24 29.83 1010 6 10 0.00 0.00
4:42 pm 16:42 Mostly Sunny 74 23.3 68 20 82 82 WSW 12 19 29.83 1010 10 16 0.00 0.00
4:53 pm 16:53 Sunny 73 22.8 67 19.4 81 81 WSW 14 22 29.82 1010 10 16 0.00 0.00
5:53 pm 17:53 Sunny 73 22.8 67 19.4 81 81 S 5 7 29.81 1010 10 16 0.00 0.00
6:53 pm 18:53 Sunny 75 23.9 66 18.9 74 74 SW 7 11 29.81 1009 10 16 0.00 0.00
8:53 pm 20:53 Sunny 73 22.8 66 18.9 79 79 SSW 3 6 29.81 1010 10 16 0.00 0.00
9:53 pm 21:53 Clear 72 22.2 66 18.9 82 82 SSW 7 11 29.82 1010 10 16 0.00 0.00
10:53 pm 22:53 Mostly Cloudy 71 21.7 66 18.9 84 84 VRB 6 9 29.84 1011 10 16 0.00 0.00
11:53 pm 23:53 Partly Cloudy 70 21.1 66 18.9 87 87 Calm 29.86 1011 10 16 0.00 0.00

Powered by AerisWeather